LJLJ

Ljubljana Jože Pučnik Airport

Airport
ICAO code
LJLJ
Summary
ICAO Region
EUR
ICAO Territory
Location

Ljubljana,

Coordinates
46° 13' 51" N , 14° 27' 18" E
Metar
LJLJ 242030Z VRB02KT 9999 FEW040 SCT120 20/18 Q1016 NOSIG

Ljubljana Jože Pučnik Airport (IATA: LJU, ICAO: LJLJ), also known by its previous name Brnik Airport, is the international airport of Ljubljana, Slovenia. The airport is located near the village of Brnik, 19 km north of Ljubljana and 11 km south of Kranj on the road between Kranj and Mengeš.

Runways

Designator Length Width Surface Rops
13/31 3300 45 ASP Yes/Yes

Airport map

Aerial View

Airport accidents

SKYbrary Partners:

Safety knowledge contributed by: